Fort Stockton, TX

12:13 PM CDT on July 24, 2017 (GMT -0500)
Fort Stockton-Pecos County

Weather History for KFST - December, 2013

Change the Weather History Date:

Sunday, December 1, 2013

  Actual Average Record
Temperature  
Mean Temperature 56 °F -  
Max Temperature 63 °F 61 °F 82 °F (2007)
Min Temperature 48 °F 39 °F 30 °F (2004)
Degree Days  
Heating Degree Days 10    
Growing Degree Days 6 (Base 50)    
Moisture  
Dew Point 42 °F    
Average Humidity 60    
Maximum Humidity 77    
Minimum Humidity 46    
Precipitation  
Precipitation 0.00 in - - ()
Sea Level Pressure  
Sea Level Pressure 30.04 in    
Wind  
Wind Speed 7 mph (WSW)    
Max Wind Speed 13 mph    
Max Gust Speed -    
Visibility 10 miles    
Events      
Averages and records for this station are not official NWS values.
T = Trace of Precipitation, MM = Missing Value Source: NWS Daily Summary

Daily Weather History Graph

Daily Weather History Graph

Search for Another Location

Airport or City:

Trip Planner

Search our weather history database for the weather conditions in past years. The results will help you decide how hot, cold, wet, or windy it might be!

Date:

Astronomy

Dec. 01, 2013 Rise Set
Actual Time 7:32 AM CST 5:49 PM CST
Civil Twilight 7:05 AM CST 6:15 PM CST
Nautical Twilight 6:36 AM CST 6:45 PM CST
Astronomical Twilight 6:06 AM CST 7:14 PM CST
Moon 5:57 AM CST (12/1) 4:57 PM CST (12/1)
Length of Visible Light 11h 09m
Length of Day
10h 17m
Waning Crescent, 2% of the Moon is Illuminated
Dec 1
Waning Crescent
Dec 2
New
Dec 9
First Quarter
Dec 17
Full
Dec 25
Last Quarter

Hourly Weather History & Observations

Time (CST) Temp. Dew Point Humidity Pressure Visibility Wind Dir Wind Speed Gust Speed Precip Events Conditions
12:53 AM 52.0 °F 42.1 °F 69% 30.08 in 10.0 mi South 9.2 mph - N/A   Clear
1:53 AM 55.9 °F 42.1 °F 60% 30.05 in 10.0 mi SSW 12.7 mph - N/A   Clear
2:53 AM 53.1 °F 42.1 °F 66% 30.05 in 10.0 mi SW 5.8 mph - N/A   Clear
3:53 AM 51.1 °F 42.1 °F 71% 30.04 in 10.0 mi Calm Calm - N/A   Clear
4:53 AM 51.1 °F 42.1 °F 71% 30.04 in 10.0 mi Variable 3.5 mph - N/A   Clear
5:53 AM 50.0 °F 41.0 °F 71% 30.05 in 10.0 mi WSW 5.8 mph - N/A   Clear
6:53 AM 48.0 °F 41.0 °F 77% 30.07 in 10.0 mi WSW 5.8 mph - N/A   Clear
7:53 AM 50.0 °F 42.1 °F 74% 30.08 in 10.0 mi SW 8.1 mph - N/A   Clear
8:53 AM 55.0 °F 42.1 °F 62% 30.09 in 10.0 mi WSW 8.1 mph - N/A   Clear
9:53 AM 60.1 °F 42.1 °F 51% 30.10 in 10.0 mi West 4.6 mph - N/A   Clear
10:53 AM 62.1 °F 41.0 °F 46% 30.11 in 10.0 mi WNW 5.8 mph - N/A   Clear
11:53 AM 63.0 °F 42.1 °F 46% 30.09 in 10.0 mi NNW 8.1 mph - N/A   Partly Cloudy
12:53 PM 62.1 °F 42.1 °F 48% 30.07 in 10.0 mi NNW 5.8 mph - N/A   Clear
1:53 PM 62.1 °F 42.1 °F 48% 30.03 in 10.0 mi Calm Calm - N/A   Clear
2:53 PM 62.1 °F 43.0 °F 50% 30.02 in 10.0 mi NW 4.6 mph - N/A   Clear
3:53 PM 61.0 °F 43.0 °F 52% 30.02 in 10.0 mi WNW 3.5 mph - N/A   Clear
4:53 PM 60.1 °F 43.0 °F 53% 30.00 in 10.0 mi SW 6.9 mph - N/A   Clear
5:53 PM 57.0 °F 44.1 °F 62% 30.01 in 10.0 mi SW 4.6 mph - N/A   Clear
6:53 PM 57.0 °F 44.1 °F 62% 30.02 in 10.0 mi WNW 4.6 mph - N/A   Clear
7:53 PM 55.9 °F 43.0 °F 62% 30.02 in 10.0 mi SW 6.9 mph - N/A   Clear
8:53 PM 57.0 °F 42.1 °F 57% 30.00 in 10.0 mi SW 10.4 mph - N/A   Clear
9:53 PM 55.0 °F 42.1 °F 62% 29.99 in 10.0 mi Calm Calm - N/A   Clear
10:53 PM 55.0 °F 42.1 °F 62% 29.98 in 10.0 mi West 3.5 mph - N/A   Clear
11:53 PM 55.0 °F 42.1 °F 62% 29.96 in 10.0 mi WSW 9.2 mph - N/A   Clear